Volver al catálogo

AETHER-6

ActivoComunicacionesSSO
NORAD 67377·PAYLOAD·🇨🇦 Canada

Lanzado Jan 11, 2026 desde Vandenberg Space Force Base

Loading…

Próximos Pases (próximas 24 horas)

TLE

ActualizadoSource: Space-Track

Época: Sep 14, 2026, 11:14 UTC

1 67377U 26004Q   26257.46847252  .00000406  00000-0  52858-4 0  9994
2 67377  97.8112 254.4536 0000134 299.0294  61.0908 14.85790855 36546

Sigue AETHER-6 en tiempo real con AllMySat

Download on the App Store